[[{"header":{"parameterUnit":"m.s-1","parameterCategory":1,"la1":30.2991,"la2":30.254,"lo1":-89.0895,"lo2":-89.0444,"dy":0.0017,"dx":0.0017,"nx":28,"ny":28,"refTime":"2025-01-20T03:00:00:Z","depth":0,"parameterNumber":2,"parameterNumberName":"U-component_of_WINDS"},"data":[0,0,0,0,0,0,0,0,0,0,0,0,0,0,0,0,0,0,0,0,0,0,0,0,0,0,0,0,0,0,0,0,0,0,0,0,0,0,0,0,0,0,0,0,0,0,0,0,0,0,0,0,0,0,0,0,0,0,0.1611,0.161,0,0.1556,0.1555,0.1555,0.157,0.1571,0.1572,0.1573,0.1513,0.151,0.1507,0,0,0,0,0,0,0,0,0,0,0,0,0,0.1726,0.1724,0.1611,0.161,0.161,0.1556,0.1555,0.1555,0.1569,0.1571,0.1572,0.1573,0.1514,0.151,0.1507,0,0,0,0,0,0,0,0,0,0,0,0,0,0.1674,0.1723,0.1611,0.1611,0.161,0.1556,0.1555,0.1554,0.1569,0.1571,0.1573,0.1574,0.1515,0.1511,0.1507,0.1449,0,0,0.1495,0.1493,0,0,0,0,0,0,0,0,0.1677,0.167,0.1611,0.1611,0.161,0.1572,0.1574,0.1519,0.1569,0.1585,0.1573,0.1575,0.1531,0.1525,0.1511,0.1446,0.1443,0.1494,0.1492,0.149,0.1489,0,0,0,0,0,0,0,0.168,0.1672,0.1589,0.161,0.161,0.1612,0.1607,0.1563,0.1549,0.1583,0.1584,0.1578,0.153,0.1515,0.151,0.1442,0.1494,0.1491,0.1488,0.1487,0.1327,0.1325,0,0,0,0,0,0,0.1685,0.1675,0.1591,0.1587,0.1648,0.1609,0.1603,0.1582,0.1549,0.1546,0.1576,0.1579,0.1521,0.1515,0.1508,0.1438,0.149,0.1486,0.1484,0.1329,0.1327,0.1325,0,0,0,0,0,0,0.1687,0.1677,0.1593,0.1631,0.1621,0.1605,0.1582,0.158,0.1565,0.1544,0.1541,0.1564,0.1522,0.1513,0.1464,0.1436,0.1485,0.1481,0.1331,0.1328,0.1326,0.1297,0,0,0,0,0,0,0.1691,0.1678,0.1656,0.1631,0.1619,0.155,0.158,0.1578,0.1558,0.1561,0.1531,0.1528,0.1523,0.147,0.146,0.1431,0.1478,0.1333,0.133,0.1327,0.13,0.1293,0.1287,0,0,0,0,0,0.1695,0.1649,0.1655,0.1645,0.1592,0.1549,0.1542,0.1538,0.1556,0.1534,0.1521,0.1529,0.1441,0.1464,0.1453,0.1423,0.1335,0.1331,0.1327,0.1303,0.1294,0.1288,0,0,0,0,0,0,0.167,0.1646,0.1652,0.1597,0.1575,0.1551,0.1523,0.1529,0.15,0.1503,0.1499,0.1492,0.1441,0.1427,0.1454,0.1366,0.1391,0.1384,0.1376,0.1368,0.1362,0.1365,0.1475,0,0,0,0,0,0.1659,0.1627,0.1607,0.1561,0.155,0.1538,0.1519,0.1519,0.1495,0.1485,0.1468,0.1444,0.1411,0.1389,0.1357,0.1299,0.1292,0.1273,0.1267,0.1262,0.1255,0.1223,0.1214,0.1311,0.1311,0.1311,0,0,0.1634,0.1617,0.1597,0.1556,0.1538,0.1505,0.153,0.1493,0.1468,0.1479,0.1431,0.1418,0.1391,0.1337,0.1312,0.1323,0.1228,0.1256,0.1252,0.1249,0.1218,0.1209,0.1201,0.1308,0.1309,0.1309,0,0,0.1571,0.1556,0.1515,0.1498,0.1473,0.1466,0.1456,0.1432,0.1424,0.1376,0.1384,0.1354,0.1297,0.1277,0.126,0.1192,0.1198,0.1182,0.1148,0.1117,0.1109,0.1103,0.1078,0.1069,0.1176,0.1176,0.1176,0,0.1543,0.1494,0.1493,0.1456,0.1438,0.1449,0.1407,0.139,0.1355,0.1341,0.1356,0.1286,0.1268,0.1209,0.1193,0.1179,0.1167,0.1184,0.1111,0.1104,0.1098,0.1074,0.1064,0.1174,0.1175,0.1175,0.1175,0,0.146,0.1426,0.1397,0.1364,0.1342,0.1303,0.1296,0.1274,0.1276,0.1268,0.1219,0.1199,0.1163,0.115,0.115,0.1091,0.1099,0.1112,0.1137,0.1087,0.1064,0.1055,0.1172,0.1172,0.1173,0.1173,0,0,0.1378,0.1348,0.1337,0.1322,0.1296,0.1269,0.123,0.1198,0.1178,0.1154,0.1121,0.1074,0.1087,0.1067,0.1066,0.1039,0.0986,0.1055,0.1054,0.1042,0.0919,0.0908,0.0897,0.0991,0.0989,0.0988,0.0921,0,0.1312,0.1246,0.1245,0.1184,0.1152,0.1163,0.113,0.1109,0.1101,0.1072,0.1062,0.1028,0.1048,0.1036,0.101,0.0998,0.0961,0.1003,0.0959,0.0957,0.0964,0.0886,0.0874,0.0811,0.0912,0.091,0.0909,0,0.1226,0.1201,0.1137,0.1116,0.1102,0.1072,0.1043,0.1015,0.0993,0.0988,0.0968,0.0971,0.0931,0.0959,0.0904,0.0933,0.0915,0.0906,0.0904,0.0898,0.0929,0.0876,0.0791,0.0781,0.0896,0.0897,0.0898,0,0.1171,0.1121,0.1077,0.1064,0.1039,0.1017,0.1006,0.0985,0.0966,0.094,0.0927,0.0896,0.0879,0.0855,0.0849,0.087,0.0794,0.0821,0.0788,0.0788,0.077,0.077,0.0679,0.0761,0.0761,0.0761,0.0762,0,0.1097,0.1057,0.1052,0.1024,0.0979,0.098,0.0935,0.0925,0.0907,0.0877,0.0885,0.0856,0.0852,0.0822,0.0818,0.0772,0.0765,0.0759,0.0758,0.0758,0.0758,0.0744,0.0748,0.0759,0.0759,0.076,0.076,0,0.1027,0.1022,0.0974,0.0955,0.0949,0.0917,0.09,0.0873,0.0867,0.0829,0.082,0.0809,0.0775,0.0768,0.0727,0.0724,0.067,0.0674,0.0677,0.0677,0.0644,0.0647,0.0539,0.0524,0.0618,0.0617,0.0616,0,0.0979,0.0948,0.0927,0.0908,0.0896,0.0865,0.0846,0.0845,0.0825,0.0798,0.0774,0.0741,0.0714,0.0659,0.0646,0.0615,0.0618,0.0582,0.0613,0.0613,0.0615,0.0617,0.0613,0.0575,0.0574,0.0574,0.0573,0,0.0893,0.0893,0.0866,0.0838,0.0816,0.0793,0.0772,0.0756,0.0753,0.0729,0.0695,0.0675,0.0634,0.06,0.057,0.0557,0.0563,0.0564,0.0554,0.0552,0.0555,0.0552,0.066,0.0566,0.0566,0.0567,0.0567,0.0568,0.0832,0.0806,0.0787,0.0756,0.0741,0.0722,0.0696,0.0687,0.0659,0.0626,0.0628,0.059,0.0569,0.0529,0.0514,0.0484,0.0495,0.0482,0.0478,0.0474,0.047,0.0562,0.0479,0.0479,0.0479,0.0479,0.0479,0,0.0746,0.0735,0.0708,0.0679,0.0655,0.0666,0.0644,0.0623,0.059,0.057,0.0545,0.0506,0.0474,0.046,0.0429,0.0407,0.041,0.0399,0.0399,0.0396,0.0463,0.0474,0.0397,0.0397,0.0397,0.0398,0.0398,0.0398,0.0698,0.0655,0.0653,0.0601,0.059,0.0554,0.0541,0.0523,0.0507,0.0464,0.0438,0.043,0.0413,0.0381,0.0352,0.0349,0.0336,0.0323,0.0321,0.0383,0.0392,0.0399,0.041,0.0321,0.0321,0.0257,0.0257,0.0256]},{"header":{"parameterUnit":"m.s-1","parameterCategory":1,"la1":30.2991,"la2":30.254,"lo1":-89.0895,"lo2":-89.0444,"dy":0.0017,"dx":0.0017,"nx":28,"ny":28,"refTime":"2025-01-20T03:00:00:Z","depth":0,"parameterNumber":3,"parameterNumberName":"V-component_of_WINDS"},"data":[0,0,0,0,0,0,0,0,0,0,0,0,0,0,0,0,0,0,0,0,0,0,0,0,0,0,0,0,0,0,0,0,0,0,0,0,0,0,0,0,0,0,0,0,0,0,0,0,0,0,0,0,0,0,0,0,0,0,-7.7212,-7.7214,0,-7.7338,-7.7339,-7.7341,-7.7221,-7.7216,-7.7211,-7.7207,-7.733,-7.7338,-7.7346,0,0,0,0,0,0,0,0,0,0,0,0,0,-7.6864,-7.6871,-7.7212,-7.7214,-7.7216,-7.7338,-7.7339,-7.7341,-7.7221,-7.7216,-7.721,-7.7204,-7.7328,-7.7337,-7.7346,0,0,0,0,0,0,0,0,0,0,0,0,0,-7.7005,-7.6874,-7.7212,-7.7171,-7.7168,-7.7337,-7.7339,-7.7342,-7.7223,-7.7216,-7.7208,-7.7202,-7.7325,-7.7336,-7.7348,-7.7562,0,0,-7.7383,-7.7388,0,0,0,0,0,0,0,0,-7.6997,-7.7018,-7.7175,-7.7174,-7.7171,-7.7256,-7.7262,-7.7415,-7.7225,-7.7202,-7.7206,-7.7198,-7.7311,-7.7324,-7.7363,-7.7568,-7.7574,-7.7384,-7.7391,-7.7396,-7.7399,0,0,0,0,0,0,0,-7.6988,-7.7012,-7.7262,-7.7178,-7.7175,-7.7144,-7.7156,-7.729,-7.7295,-7.7203,-7.7195,-7.7212,-7.7309,-7.7352,-7.7365,-7.7575,-7.7384,-7.7394,-7.7401,-7.7406,-7.7962,-7.797,0,0,0,0,0,0,-7.6983,-7.7005,-7.7258,-7.7266,-7.7065,-7.7156,-7.717,-7.7236,-7.7293,-7.7295,-7.7218,-7.7206,-7.7335,-7.7351,-7.7369,-7.7624,-7.7396,-7.7407,-7.7414,-7.7955,-7.7964,-7.7973,0,0,0,0,0,0,-7.6976,-7.7007,-7.7253,-7.7133,-7.7162,-7.717,-7.7245,-7.7243,-7.7285,-7.7304,-7.7304,-7.7261,-7.733,-7.7352,-7.7515,-7.7626,-7.7412,-7.7423,-7.7945,-7.7958,-7.7968,-7.8136,0,0,0,0,0,0,-7.6967,-7.7005,-7.7088,-7.7136,-7.7169,-7.74,-7.7252,-7.725,-7.7306,-7.7292,-7.7345,-7.7347,-7.7326,-7.7499,-7.7527,-7.7638,-7.7432,-7.7936,-7.7951,-7.7965,-7.8121,-7.8152,-7.8179,0,0,0,0,0,-7.6955,-7.7129,-7.7093,-7.7124,-7.7273,-7.7406,-7.7425,-7.74,-7.7316,-7.7398,-7.741,-7.7345,-7.761,-7.7516,-7.7547,-7.7664,-7.7928,-7.7947,-7.7964,-7.8107,-7.8146,-7.8178,0,0,0,0,0,0,-7.7093,-7.7135,-7.7095,-7.7291,-7.7346,-7.7386,-7.7489,-7.7441,-7.752,-7.7503,-7.7466,-7.7479,-7.7652,-7.7674,-7.7569,-7.7874,-7.7755,-7.778,-7.7854,-7.7891,-7.7919,-7.791,-7.7441,0,0,0,0,0,-7.7146,-7.7253,-7.7283,-7.7452,-7.7482,-7.7482,-7.7539,-7.7514,-7.757,-7.7592,-7.7616,-7.767,-7.7765,-7.7829,-7.7918,-7.8123,-7.8132,-7.8218,-7.8247,-7.8271,-7.8293,-7.8402,-7.8441,-7.803,-7.803,-7.803,0,0,-7.7258,-7.7294,-7.7363,-7.7481,-7.7521,-7.7631,-7.7502,-7.7623,-7.7704,-7.761,-7.7766,-7.7785,-7.7843,-7.8029,-7.8111,-7.8052,-7.8408,-7.8293,-7.8312,-7.8321,-7.8424,-7.8463,-7.8498,-7.8042,-7.804,-7.8038,0,0,-7.7516,-7.7555,-7.77,-7.7743,-7.7806,-7.7804,-7.7839,-7.7887,-7.7897,-7.8053,-7.7985,-7.8078,-7.8244,-7.8288,-7.8332,-7.8608,-7.855,-7.8637,-7.879,-7.8897,-7.8929,-7.8958,-7.9056,-7.9091,-7.8659,-7.8659,-7.866,0,-7.7646,-7.781,-7.7781,-7.7908,-7.7961,-7.7883,-7.8029,-7.8071,-7.816,-7.8198,-7.813,-7.8336,-7.837,-7.8564,-7.8631,-7.867,-7.8707,-7.8631,-7.8927,-7.8955,-7.8982,-7.9075,-7.9112,-7.8669,-7.8668,-7.8667,-7.8666,0,-7.7966,-7.8081,-7.8191,-7.828,-7.8346,-7.8482,-7.8471,-7.8541,-7.8511,-7.8516,-7.8675,-7.8713,-7.8808,-7.8852,-7.8823,-7.9042,-7.9004,-7.8933,-7.8812,-7.9031,-7.9118,-7.9154,-7.8684,-7.868,-7.8677,-7.8675,0,0,-7.8316,-7.8388,-7.8428,-7.8468,-7.8531,-7.8618,-7.875,-7.8844,-7.8904,-7.8967,-7.9076,-7.9218,-7.9152,-7.9203,-7.9178,-7.9272,-7.9487,-7.9189,-7.919,-7.9243,-7.9731,-7.9784,-7.9826,-7.945,-7.9456,-7.9462,-7.9726,0,-7.8577,-7.8808,-7.8785,-7.9004,-7.9109,-7.9035,-7.9149,-7.92,-7.9208,-7.9296,-7.9304,-7.9405,-7.9311,-7.9341,-7.9431,-7.9442,-7.9585,-7.9423,-7.9549,-7.9554,-7.9538,-7.9871,-7.9928,-8.0176,-7.9759,-7.9765,-7.9769,0,-7.8913,-7.8989,-7.9219,-7.9266,-7.9309,-7.9413,-7.9497,-7.9584,-7.9639,-7.9637,-7.9694,-7.9653,-7.9783,-7.966,-7.9839,-7.973,-7.9779,-7.9793,-7.9802,-7.9812,-7.9675,-7.9891,-8.0254,-8.0292,-7.9822,-7.9818,-7.9814,0,-7.9145,-7.9305,-7.9463,-7.9499,-7.9558,-7.9633,-7.966,-7.9708,-7.9767,-7.984,-7.9877,-7.9963,-8.0011,-8.0078,-8.0061,-7.9973,-8.0244,-8.0119,-8.0245,-8.0246,-8.0306,-8.0303,-8.0682,-8.0338,-8.0338,-8.0337,-8.0336,0,-7.9439,-7.9582,-7.9569,-7.9666,-7.9824,-7.9796,-7.9952,-7.997,-8.0014,-8.0112,-8.0052,-8.0146,-8.0117,-8.0208,-8.0195,-8.0345,-8.0366,-8.0368,-8.0363,-8.0374,-8.0374,-8.0406,-8.0389,-8.0347,-8.0345,-8.0343,-8.0341,0,-7.9725,-7.9722,-7.989,-7.9932,-7.9946,-8.0061,-8.0096,-8.0187,-8.019,-8.0315,-8.0342,-8.0347,-8.0451,-8.044,-8.0557,-8.0548,-8.0734,-8.0707,-8.0716,-8.071,-8.0837,-8.0826,-8.1251,-8.1305,-8.0927,-8.093,-8.0933,0,-7.9913,-8.0022,-8.0077,-8.0139,-8.0173,-8.0274,-8.0333,-8.0308,-8.0372,-8.0443,-8.0525,-8.0625,-8.0703,-8.0872,-8.0885,-8.0973,-8.0949,-8.1092,-8.0962,-8.0969,-8.0951,-8.0945,-8.0956,-8.1118,-8.1122,-8.1126,-8.1128,0,-8.0247,-8.024,-8.0329,-8.0418,-8.0491,-8.0559,-8.0621,-8.0675,-8.0656,-8.0731,-8.0838,-8.0899,-8.1018,-8.1117,-8.1201,-8.1226,-8.1175,-8.1169,-8.1203,-8.1216,-8.1216,-8.1218,-8.0786,-8.116,-8.1157,-8.1154,-8.1153,-8.1151,-8.049,-8.0584,-8.0637,-8.0738,-8.0782,-8.0841,-8.0929,-8.0943,-8.1032,-8.1129,-8.1108,-8.1229,-8.1279,-8.1387,-8.1421,-8.1514,-8.1462,-8.1511,-8.1523,-8.1536,-8.1551,-8.1202,-8.1529,-8.1528,-8.1527,-8.1526,-8.1525,0,-8.0821,-8.0852,-8.0945,-8.1034,-8.1113,-8.1059,-8.1124,-8.1193,-8.1301,-8.1353,-8.1432,-8.1554,-8.165,-8.167,-8.1761,-8.1831,-8.1809,-8.1855,-8.185,-8.1857,-8.1592,-8.1554,-8.1871,-8.1871,-8.1871,-8.1871,-8.1871,-8.1871,-8.1003,-8.1158,-8.1158,-8.1333,-8.1362,-8.1481,-8.1523,-8.1577,-8.1618,-8.1759,-8.1838,-8.1851,-8.1891,-8.1984,-8.2068,-8.2071,-8.2108,-8.2164,-8.2158,-8.191,-8.1876,-8.1843,-8.1806,-8.2172,-8.2172,-8.2414,-8.2417,-8.2418]}]]